CW9822 Weather Reports


time (UTC)temp
C
wind
direction
speed
KPH
gust
KPH
rain 1hr
cm
rain 24hr
cm
rain mn
cm
humidity
%
barometer
mb
20260503180823 22 274 0.0 0.0 0.00 0.00 0.00 59 1011.0
20260503180334 22 274 0.0 3.2 0.00 0.00 0.00 60 1011.1
20260503175825 22 274 0.0 3.2 0.00 0.00 0.00 58 1011.2
20260503175317 22 274 0.0 0.0 0.00 0.00 0.00 58 1011.2
20260503174826 21 274 0.0 1.6 0.00 0.00 0.00 60 1011.2
20260503174320 21 274 0.0 1.6 0.00 0.00 0.00 59 1011.3
20260503173851 21 274 0.0 1.6 0.00 0.00 0.00 63 1011.2
20260503173321 21 274 0.0 1.6 0.00 0.00 0.00 65 1011.2
20260503172834 21 273 0.0 1.6 0.00 0.00 0.00 68 1011.2
20260503172327 20 273 0.0 1.6 0.00 0.00 0.00 70 1011.2
20260503171820 20 273 0.0 1.6 0.00 0.00 0.00 71 1011.2
20260503171333 20 273 0.0 0.0 0.00 0.00 0.00 71 1011.2
20260503170826 20 273 0.0 1.6 0.00 0.00 0.00 72 1011.1
20260503170319 20 273 0.0 1.6 0.00 0.00 0.00 71 1011.1
20260503150822 12 274 0.0 0.0 0.00 0.00 0.00 96 1011.5
20260503150333 12 274 0.0 0.0 0.00 0.00 0.00 96 1011.5
20260503131345 11 274 0.0 0.0 0.00 0.00 0.00 94 1011.4
20260503130835 11 274 0.0 0.0 0.00 0.00 0.00 94 1011.3
20260503130330 11 274 0.0 0.0 0.00 0.00 0.00 94 1011.3
20260503110826 12 274 0.0 0.0 0.00 0.00 0.00 94 1011.5
20260503110316 12 274 0.0 0.0 0.00 0.00 0.00 94 1011.4
20260503090345 12 274 0.0 0.0 0.00 0.00 0.00 92 1011.8
20260503081333 12 274 0.0 0.0 0.00 0.00 0.00 91 1012.0
20260503080844 12 274 0.0 0.0 0.00 0.00 0.00 91 1011.9
20260503080335 12 274 0.0 0.0 0.00 0.00 0.00 91 1012.0
20260503072852 13 274 0.0 0.0 0.00 0.00 0.00 89 1012.3
20260503072322 13 274 0.0 0.0 0.00 0.00 0.00 89 1012.4
20260503071853 13 274 0.0 0.0 0.00 0.00 0.00 88 1012.4
20260503071323 13 274 0.0 0.0 0.00 0.00 0.00 88 1012.4
20260503070833 13 274 0.0 0.0 0.00 0.00 0.00 88 1012.4
20260503070330 13 274 0.0 0.0 0.00 0.00 0.00 88 1012.4
20260503060327 14 274 0.0 0.0 0.00 0.00 0.00 85 1012.1
20260503054817 15 274 0.0 0.0 0.00 0.00 0.00 85 1012.3
20260503054327 15 274 0.0 0.0 0.00 0.00 0.00 84 1012.3
20260503053819 15 274 0.0 0.0 0.00 0.00 0.00 84 1012.3
20260503053331 15 274 0.0 0.0 0.00 0.00 0.00 84 1012.3
20260503052821 15 274 0.0 0.0 0.00 0.00 0.00 84 1012.3
20260503052331 15 274 0.0 0.0 0.00 0.00 0.00 83 1012.3
20260503051841 15 274 0.0 0.0 0.00 0.00 0.00 83 1012.4
20260503051338 15 274 0.0 0.0 0.00 0.00 0.00 83 1012.4
20260503050827 15 274 0.0 0.0 0.00 0.00 0.00 83 1012.4
20260503050319 15 274 0.0 0.0 0.00 0.00 0.00 82 1012.4
20260503045829 15 274 0.0 0.0 0.00 0.00 0.00 82 1012.3
20260503045340 16 274 0.0 0.0 0.00 0.00 0.00 82 1012.4
20260503044849 16 274 0.0 0.0 0.00 0.00 0.00 82 1012.4
20260503044323 16 274 0.0 0.0 0.00 0.00 0.00 81 1012.4
20260503043834 16 274 0.0 0.0 0.00 0.00 0.00 81 1012.3
20260503043347 16 274 0.0 0.0 0.00 0.00 0.00 81 1012.4
20260503042818 16 274 0.0 0.0 0.00 0.00 0.00 81 1012.2
20260503042328 16 274 0.0 0.0 0.00 0.00 0.00 81 1012.0
20260503041817 16 274 0.0 0.0 0.00 0.00 0.00 81 1011.9
20260503041334 16 274 0.0 0.0 0.00 0.00 0.00 81 1012.0
20260503040825 16 274 0.0 0.0 0.00 0.00 0.00 81 1011.8
20260503040315 16 274 0.0 0.0 0.00 0.00 0.00 81 1011.7
20260503035829 16 274 0.0 0.0 0.00 0.00 0.00 81 1011.7
20260503035319 16 274 0.0 0.0 0.00 0.00 0.00 80 1011.8
20260503034850 16 274 0.0 0.0 0.00 0.00 0.00 80 1011.8
20260503034319 16 274 0.0 0.0 0.00 0.00 0.00 80 1011.7
20260503033830 16 274 0.0 0.0 0.00 0.00 0.00 80 1011.4
20260503033320 16 274 0.0 0.0 0.00 0.00 0.00 80 1011.3
20260503032816 16 274 0.0 0.0 0.00 0.00 0.00 79 1011.1
20260503032330 17 274 0.0 0.0 0.00 0.00 0.00 79 1010.9
20260503031821 17 274 0.0 0.0 0.00 0.00 0.00 79 1010.9
20260503031333 17 274 0.0 0.0 0.00 0.00 0.00 78 1011.0
20260503030843 17 274 0.0 0.0 0.00 0.00 0.00 78 1011.1
20260503030317 17 274 0.0 0.0 0.00 0.00 0.00 78 1011.1
20260503025827 17 274 0.0 0.0 0.00 0.00 0.00 78 1011.1
20260503025320 17 274 0.0 0.0 0.00 0.00 0.00 77 1011.2
20260503024836 17 274 0.0 0.0 0.00 0.00 0.00 76 1011.2
20260503024331 17 274 0.0 0.0 0.00 0.00 0.00 76 1011.3
20260503023821 17 274 0.0 0.0 0.00 0.00 0.00 76 1011.5
20260503023332 17 274 0.0 0.0 0.00 0.00 0.00 76 1011.6
20260503022822 18 274 0.0 0.0 0.00 0.00 0.00 75 1011.6
20260503022354 18 274 0.0 0.0 0.00 0.00 0.00 75 1011.8
20260503021824 18 274 0.0 0.0 0.00 0.00 0.00 75 1012.0
20260503021338 18 274 0.0 0.0 0.00 0.00 0.00 73 1011.9
20260503020828 18 274 0.0 0.0 0.00 0.00 0.00 73 1012.2
20260503020319 18 274 0.0 0.0 0.00 0.00 0.00 71 1012.3
20260503015817 18 274 0.0 0.0 0.00 0.00 0.00 70 1012.4
20260503015330 18 274 0.0 0.0 0.00 0.00 0.00 70 1012.2
20260503014825 18 274 0.0 0.0 0.00 0.00 0.00 70 1012.1
20260503014321 18 274 0.0 0.0 0.00 0.00 0.00 70 1012.2
20260503013834 19 274 0.0 1.6 0.00 0.00 0.00 69 1012.0
20260503013327 19 274 0.0 0.0 0.00 0.00 0.00 68 1011.9
20260503012820 19 274 0.0 0.0 0.00 0.00 0.00 69 1011.8
20260503012331 19 274 0.0 0.0 0.00 0.00 0.00 68 1011.8
20260503011847 20 274 0.0 0.0 0.00 0.00 0.00 67 1011.7
20260503011323 20 274 0.0 0.0 0.00 0.00 0.00 66 1011.8
20260503010816 20 274 0.0 0.0 0.00 0.00 0.00 67 1011.7
20260503010329 20 274 0.0 0.0 0.00 0.00 0.00 66 1011.8
20260503005821 20 274 0.0 0.0 0.00 0.00 0.00 66 1011.7
20260503005335 20 274 0.0 0.0 0.00 0.00 0.00 66 1011.8
20260503004826 20 274 0.0 0.0 0.00 0.00 0.00 64 1011.8
20260503004316 20 274 0.0 0.0 0.00 0.00 0.00 64 1011.7
20260503003827 20 274 0.0 0.0 0.00 0.00 0.00 66 1011.7
20260503003322 20 274 0.0 0.0 0.00 0.00 0.00 67 1011.6
20260503002816 20 274 0.0 0.0 0.00 0.00 0.00 67 1011.5
20260503002327 20 274 0.0 0.0 0.00 0.00 0.00 66 1011.4
20260503001818 20 274 0.0 0.0 0.00 0.00 0.00 64 1011.4
20260503001328 20 274 0.0 0.0 0.00 0.00 0.00 64 1011.4
20260503000820 20 274 0.0 1.6 0.00 0.00 0.00 65 1011.4
20260503000331 20 274 0.0 0.0 0.00 0.00 0.00 64 1011.3
20260502235823 20 274 0.0 0.0 0.00 0.00 0.00 64 1011.3
20260502235333 20 274 0.0 0.0 0.00 0.00 0.00 66 1011.3
20260502234824 20 274 0.0 0.0 0.00 0.00 0.00 64 1011.3
20260502234318 20 273 0.0 0.0 0.00 0.00 0.00 63 1011.3
20260502233831 20 273 0.0 0.0 0.00 0.00 0.00 62 1011.3
20260502233343 20 274 0.0 0.0 0.00 0.00 0.00 65 1011.4
20260502232833 20 274 0.0 1.6 0.00 0.00 0.00 63 1011.6
20260502232327 20 274 0.0 1.6 0.00 0.00 0.00 63 1011.8
20260502231817 20 274 0.0 0.0 0.00 0.00 0.00 63 1011.8
20260502231328 20 274 0.0 0.0 0.00 0.00 0.00 61 1012.0
20260502230822 20 274 0.0 0.0 0.00 0.00 0.00 63 1012.1
20260502230318 20 274 0.0 0.0 0.00 0.00 0.00 65 1012.2
20260502225829 20 274 0.0 0.0 0.00 0.00 0.00 63 1012.2
20260502225320 20 274 0.0 0.0 0.00 0.00 0.00 64 1012.1
20260502224832 20 274 0.0 1.6 0.00 0.00 0.00 65 1012.2
20260502224323 20 274 0.0 1.6 0.00 0.00 0.00 65 1012.4
20260502223855 20 273 0.0 1.6 0.00 0.00 0.00 63 1012.5
20260502223325 20 273 0.0 0.0 0.00 0.00 0.00 63 1012.6
20260502222835 20 273 0.0 1.6 0.00 0.00 0.00 64 1012.7
20260502222325 20 273 0.0 1.6 0.00 0.00 0.00 62 1012.9
20260502221822 20 273 0.0 0.0 0.00 0.00 0.00 62 1013.0
20260502221334 20 273 0.0 0.0 0.00 0.00 0.00 65 1013.0
20260502220824 20 273 0.0 0.0 0.00 0.00 0.00 63 1013.1
20260502220316 20 273 0.0 1.6 0.00 0.00 0.00 67 1013.1
20260502215827 20 274 0.0 1.6 0.00 0.00 0.00 64 1013.0
20260502215318 20 271 0.0 0.0 0.00 0.00 0.00 66 1013.1
20260502214829 19 271 0.0 1.6 0.00 0.00 0.00 67 1013.1
20260502214322 18 271 0.0 1.6 0.00 0.00 0.00 66 1013.2
20260502213817 18 271 0.0 0.0 0.00 0.00 0.00 66 1013.2
20260502213328 18 271 0.0 0.0 0.00 0.00 0.00 69 1013.3
20260502212819 18 271 0.0 1.6 0.00 0.00 0.00 67 1013.4
20260502212331 18 271 0.0 1.6 0.00 0.00 0.00 69 1013.4
20260502211841 18 270 0.0 1.6 0.00 0.00 0.00 66 1013.4
20260502211333 18 271 0.0 3.2 0.00 0.00 0.00 66 1013.4
20260502210826 18 270 0.0 3.2 0.00 0.00 0.00 69 1013.5
20260502210317 17 270 0.0 1.6 0.00 0.00 0.00 67 1013.6
20260502205827 17 270 0.0 0.0 0.00 0.00 0.00 65 1013.7
20260502205322 18 270 0.0 0.0 0.00 0.00 0.00 65 1013.8
20260502204831 18 270 0.0 0.0 0.00 0.00 0.00 66 1013.9
20260502204322 18 270 0.0 1.6 0.00 0.00 0.00 66 1013.9
20260502203854 17 271 0.0 3.2 0.00 0.00 0.00 66 1014.0
20260502203324 17 271 0.0 3.2 0.00 0.00 0.00 65 1014.0
20260502202836 17 271 0.0 0.0 0.00 0.00 0.00 72 1014.1
20260502202330 17 271 0.0 0.0 0.00 0.00 0.00 68 1014.0
20260502201822 16 271 0.0 0.0 0.00 0.00 0.00 70 1014.1
20260502201335 16 271 0.0 1.6 0.00 0.00 0.00 70 1014.2
20260502200831 16 271 0.0 1.6 0.00 0.00 0.00 73 1014.3
20260502200324 16 271 0.0 0.0 0.00 0.00 0.00 73 1014.4
20260502195822 16 271 0.0 0.0 0.00 0.00 0.00 69 1014.4
20260502195335 16 271 0.0 0.0 0.00 0.00 0.00 70 1014.6
20260502194828 16 262 0.0 1.6 0.00 0.00 0.00 72 1014.6
20260502194344 16 262 0.0 1.6 0.00 0.00 0.00 68 1014.7
20260502193855 16 262 0.0 0.0 0.00 0.00 0.00 76 1014.8
20260502193326 15 262 0.0 0.0 0.00 0.00 0.00 76 1014.9
20260502192819 15 262 0.0 0.0 0.00 0.00 0.00 72 1015.1
20260502192332 15 262 0.0 1.6 0.00 0.00 0.00 77 1015.2
20260502191829 14 262 0.0 1.6 0.00 0.00 0.00 78 1015.2
20260502191326 14 262 0.0 1.6 0.00 0.00 0.00 76 1015.2
20260502190820 13 262 0.0 0.0 0.00 0.00 0.00 81 1015.4
20260502190335 13 262 0.0 0.0 0.00 0.00 0.00 78 1015.4
20260502185828 13 262 0.0 0.0 0.00 0.00 0.00 82 1015.4
20260502185324 13 262 0.0 0.0 0.00 0.00 0.00 78 1015.3
20260502184818 13 262 0.0 0.0 0.00 0.00 0.00 79 1015.2
20260502184351 12 262 0.0 0.0 0.00 0.00 0.00 80 1015.4
20260502183819 12 262 0.0 0.0 0.00 0.00 0.00 80 1015.3
20260502183333 12 257 0.0 0.0 0.00 0.00 0.00 81 1015.4
20260502182842 12 257 0.0 0.0 0.00 0.00 0.00 81 1015.5
20260502182335 12 257 0.0 0.0 0.00 0.00 0.00 80 1015.5
20260502181826 12 257 0.0 0.0 0.00 0.00 0.00 82 1015.6
20260502181319 12 257 0.0 0.0 0.00 0.00 0.00 81 1015.5